Location: Borgo
(42.3939°N, 9.2791°E)
Time: 18:54:06
(UTC+00:00)

Cosmos 1328 - Pass Details

Date: 24 January 2021
Orbit: 528 x 555 km, 82.5° (Epoch: 02 March)

Event Time Altitude Azimuth Distance (km) Brightness Sun altitude
Rises 17:23:12 0° 165° (SSE) 2,712 7.4 -10.6°
Reaches altitude 10° 17:25:30 10° 155° (SSE) 1,820 6.4 -11.0°
Maximum altitude 17:29:06 33° 91° (E) 941 4.5 -11.6°
Drops below altitude 10° 17:32:42 10° 27° (NNE) 1,821 6.1 -12.3°
Enters shadow 17:33:31 - 23° (NNE) 2,131 6.5 -12.4°
